Worcester, MA

7:26 PM EDT on March 29, 2017 (GMT -0400)
Worcester Regional

Weather History for KORH - October, 2010

Change the Weather History Date:

Thursday, October 21, 2010

  Actual Average Record
Temperature  
Mean Temperature 46 °F 48 °F  
Max Temperature 53 °F 57 °F 80 °F (1920)
Min Temperature 38 °F 40 °F 22 °F (1952)
Degree Days  
Heating Degree Days 19 17  
Month to date heating degree days 301 284  
Since 1 July heating degree days 426 477  
Cooling Degree Days 0 0  
Month to date cooling degree days 0 0  
Year to date cooling degree days 728 468  
Moisture  
Dew Point -    
Average Humidity 85    
Maximum Humidity 100    
Minimum Humidity 70    
Precipitation  
Precipitation 0.09 in 0.15 in 4.10 in (2016)
Month to date precipitation 5.85 3.25  
Year to date precipitation 41.63 38.54  
Snow  
Snow 0.00 in 0.00 in 2.10 in (1964)
Month to date snowfall 0.0 0.1  
Since 1 July snowfall 0.0 0.1  
Since 1 September snowfall 0.0 0.1  
Snow Depth 0.00 in    
Wind  
Wind Speed 12 mph (North)    
Max Wind Speed 36 mph    
Max Gust Speed 47 mph    
T = Trace of Precipitation, MM = Missing Value Source: NWS Daily Summary

Daily Weather History Graph

Daily Weather History Graph

Search for Another Location

Airport or City:

Trip Planner

Search our weather history database for the weather conditions in past years. The results will help you decide how hot, cold, wet, or windy it might be!

Date:

Astronomy

Oct. 21, 2010 Rise Set
Actual Time 7:07 AM EDT 5:56 PM EDT
Civil Twilight 6:38 AM EDT 6:24 PM EDT
Nautical Twilight 6:06 AM EDT 6:57 PM EDT
Astronomical Twilight 5:33 AM EDT 7:29 PM EDT
Moon 4:55 PM EDT (10/21) 5:43 AM EDT (10/21)
Length of Visible Light 11h 46m
Length of Day
10h 49m
Waxing Gibbous, 98% of the Moon is Illuminated
Oct 21
Waxing Gibbous
Oct 22
Full
Oct 30
Last Quarter
Nov 6
New
Nov 13
First Quarter

Hourly Weather History & Observations

Time (EDT) Temp. Windchill Dew Point Humidity Pressure Visibility Wind Dir Wind Speed Gust Speed Precip Events Conditions
12:54 AM 44.1 °F 39.0 °F 39.9 °F 85% 29.75 in 10.0 mi WSW 9.2 mph - N/A   Clear
1:54 AM 44.1 °F 39.0 °F 39.9 °F 85% 29.73 in 10.0 mi WSW 9.2 mph - N/A   Clear
2:54 AM 43.0 °F 39.5 °F 39.9 °F 89% 29.70 in 10.0 mi SW 5.8 mph - N/A   Clear
3:54 AM 43.0 °F 37.2 °F 39.9 °F 89% 29.68 in 10.0 mi WSW 10.4 mph - N/A   Clear
4:54 AM 42.1 °F 37.1 °F 39.9 °F 92% 29.66 in 8.0 mi SW 8.1 mph - N/A   Clear
5:54 AM 39.9 °F 34.5 °F 39.0 °F 97% 29.65 in 4.0 mi SW 8.1 mph - N/A   Clear
6:28 AM 39.2 °F 34.2 °F 39.2 °F 100% 29.62 in 2.5 mi WSW 6.9 mph - N/A   Clear
6:43 AM 39.2 °F 33.0 °F 39.2 °F 100% 29.62 in 1.2 mi SW 9.2 mph - N/A   Scattered Clouds
6:45 AM 39.2 °F 33.6 °F 39.2 °F 100% 29.61 in 0.8 mi SW 8.1 mph - N/A   Mist
6:54 AM 39.9 °F 33.4 °F 39.9 °F 100% 29.63 in 0.2 mi WSW 10.4 mph - N/A Fog Fog
7:12 AM 39.2 °F 32.0 °F 39.2 °F 100% 29.60 in 0.2 mi SW 11.5 mph - N/A Fog Fog
7:54 AM 41.0 °F 34.7 °F 41.0 °F 100% 29.62 in 0.2 mi SW 10.4 mph - N/A Fog Fog
8:07 AM 41.0 °F 34.7 °F 41.0 °F 100% 29.60 in 0.2 mi WSW 10.4 mph - N/A Fog Fog
8:38 AM 42.8 °F 37.5 °F 42.8 °F 100% 29.60 in 0.2 mi South 9.2 mph - N/A Fog Fog
8:54 AM 43.0 °F 38.8 °F 43.0 °F 100% 29.61 in 0.2 mi SSW 6.9 mph - N/A Fog Fog
9:54 AM 45.0 °F 39.3 °F 45.0 °F 100% 29.58 in 0.2 mi SSW 11.5 mph - N/A Fog Fog
10:00 AM 44.6 °F 38.4 °F 44.6 °F 100% 29.56 in 0.5 mi SSW 12.7 mph - N/A Fog Fog
10:09 AM 44.6 °F 38.4 °F 44.6 °F 100% 29.57 in 1.2 mi SSW 12.7 mph - N/A   Overcast
10:22 AM 44.6 °F 38.4 °F 44.6 °F 100% 29.57 in 2.0 mi SW 12.7 mph - N/A   Overcast
10:40 AM 46.4 °F 40.7 °F 46.4 °F 100% 29.57 in 4.0 mi SW 12.7 mph - N/A   Overcast
10:52 AM 48.2 °F - 46.4 °F 93% 29.57 in 5.0 mi SW 16.1 mph 21.9 mph N/A   Overcast
10:54 AM 48.0 °F - 46.9 °F 96% 29.58 in 5.0 mi SW 15.0 mph 21.9 mph N/A   Overcast
11:38 AM 48.2 °F - 48.2 °F 100% 29.55 in 5.0 mi SW 15.0 mph 20.7 mph 0.00 in Rain Light Rain
11:54 AM 48.9 °F - 48.0 °F 97% 29.56 in 4.0 mi SSW 12.7 mph 23.0 mph 0.02 in Rain Rain
12:16 PM 48.2 °F - 48.2 °F 100% 29.54 in 6.0 mi SW 13.8 mph - 0.02 in Rain Light Rain
12:19 PM 48.2 °F - 48.2 °F 100% 29.54 in 6.0 mi SW 11.5 mph - 0.02 in Rain Light Rain
12:54 PM 50.0 °F - 48.0 °F 93% 29.54 in 7.0 mi WSW 13.8 mph - 0.03 in   Overcast
1:11 PM 50.0 °F - 48.2 °F 94% 29.51 in 8.0 mi SW 13.8 mph - N/A   Overcast
1:29 PM 50.0 °F - 46.4 °F 87% 29.50 in 9.0 mi SW 15.0 mph 24.2 mph N/A   Mostly Cloudy
1:54 PM 51.1 °F - 46.9 °F 86% 29.51 in 10.0 mi SW 13.8 mph 21.9 mph N/A   Overcast
2:06 PM 51.8 °F - 46.4 °F 82% 29.49 in 10.0 mi WSW 17.3 mph 24.2 mph N/A   Mostly Cloudy
2:54 PM 42.1 °F 34.5 °F 39.9 °F 92% 29.54 in 4.0 mi WNW 15.0 mph 25.3 mph 0.02 in Rain Heavy Rain
3:07 PM 42.8 °F 36.2 °F 39.2 °F 87% 29.52 in 10.0 mi WNW 12.7 mph - 0.01 in Rain Light Rain
3:54 PM 46.9 °F - 42.1 °F 83% 29.55 in 10.0 mi West 13.8 mph - 0.02 in   Partly Cloudy
4:54 PM 46.9 °F - 39.9 °F 77% 29.57 in 10.0 mi West 16.1 mph 23.0 mph N/A   Clear
5:54 PM 46.0 °F 38.8 °F 39.0 °F 76% 29.59 in 10.0 mi West 18.4 mph 23.0 mph 0.00 in   Mostly Cloudy
6:54 PM 45.0 °F 37.6 °F 35.1 °F 68% 29.62 in 10.0 mi West 17.3 mph 27.6 mph N/A   Clear
7:54 PM 44.1 °F 36.5 °F 35.1 °F 71% 29.64 in 10.0 mi West 17.3 mph 26.5 mph N/A   Clear
8:54 PM 42.1 °F 34.9 °F 34.0 °F 73% 29.65 in 10.0 mi West 13.8 mph 19.6 mph N/A   Clear
9:54 PM 42.1 °F 34.2 °F 33.1 °F 70% 29.68 in 10.0 mi West 16.1 mph - N/A   Clear
10:54 PM 39.9 °F 32.5 °F 32.0 °F 73% 29.70 in 10.0 mi West 12.7 mph - N/A   Clear
11:54 PM 37.9 °F 32.1 °F 32.0 °F 79% 29.71 in 10.0 mi West 8.1 mph - N/A   Scattered Clouds